Location: Skalnate Pleso
(49.1889°N, 20.2450°E)
Time: 04:26:27
(UTC+02:00)

Cosmos 1605 Rocket - Pass Details

Date: 24 February 2020
Orbit: 944 x 1007 km, 82.9° (Epoch: 04 April)

Event Time Altitude Azimuth Distance (km) Brightness Sun altitude
Rises 02:45:03 0° 353° (N) 3,686 7.3 -36.7°
Reaches altitude 10° 02:47:40 10° 358° (N) 2,725 6.6 -36.3°
Enters shadow 02:53:02 50° 52° (NE) 1,214 4.7 -35.6°
